Willimantic, CT

6:06 PM EST on November 24, 2017 (GMT -0500)
Windham

Weather History for KIJD - February, 2014

Change the Weather History Date:

Thursday, February 27, 2014

  Actual Average Record
Temperature  
Mean Temperature 14 °F -  
Max Temperature 28 °F 38 °F 62 °F (1997)
Min Temperature 1 °F 18 °F -3 °F (1990)
Degree Days  
Heating Degree Days 50    
Moisture  
Dew Point 4 °F    
Average Humidity 56    
Maximum Humidity 75    
Minimum Humidity 33    
Precipitation  
Precipitation 0.00 in - - ()
Sea Level Pressure  
Sea Level Pressure 29.76 in    
Wind  
Wind Speed 6 mph (West)    
Max Wind Speed 22 mph    
Max Gust Speed 32 mph    
Visibility 8 miles    
Events Snow    
Averages and records for this station are not official NWS values.
T = Trace of Precipitation, MM = Missing Value Source: NWS Daily Summary

Daily Weather History Graph

Daily Weather History Graph

Search for Another Location

Airport or City:

Trip Planner

Search our weather history database for the weather conditions in past years. The results will help you decide how hot, cold, wet, or windy it might be!

Date:

Astronomy

Feb. 27, 2014 Rise Set
Actual Time 6:26 AM EST 5:36 PM EST
Civil Twilight 5:58 AM EST 6:04 PM EST
Nautical Twilight 5:26 AM EST 6:36 PM EST
Astronomical Twilight 4:54 AM EST 7:09 PM EST
Moon 4:58 AM EST (2/27) 3:58 PM EST (2/27)
Length of Visible Light 12h 05m
Length of Day
11h 10m
Waning Crescent, 4% of the Moon is Illuminated
Feb 27
Waning Crescent
Mar 1
New
Mar 8
First Quarter
Mar 16
Full
Mar 23
Last Quarter

Hourly Weather History & Observations

Time (EST) Temp. Windchill Dew Point Humidity Pressure Visibility Wind Dir Wind Speed Gust Speed Precip Events Conditions
12:52 AM 5.0 °F - -4.0 °F 66% 29.91 in 9.0 mi Calm Calm - N/A   Clear
1:52 AM 5.0 °F -6.9 °F -4.0 °F 66% 29.89 in 10.0 mi ENE 6.9 mph - N/A   Clear
2:52 AM 3.9 °F - -5.1 °F 66% 29.86 in 10.0 mi Calm Calm - N/A   Clear
3:52 AM 3.9 °F -3.4 °F -4.0 °F 70% 29.83 in 10.0 mi NNE 3.5 mph - N/A   Clear
4:52 AM 3.9 °F - -4.0 °F 70% 29.81 in 10.0 mi Calm Calm - N/A   Clear
5:52 AM 3.0 °F - -4.0 °F 73% 29.81 in 10.0 mi Calm Calm - N/A   Clear
6:52 AM 1.0 °F - -5.1 °F 75% 29.79 in 8.0 mi Calm Calm - N/A   Clear
7:52 AM 5.0 °F - -2.0 °F 73% 29.79 in 9.0 mi Calm Calm - N/A   Clear
8:52 AM 10.9 °F - -0.9 °F 59% 29.77 in 10.0 mi Calm Calm - N/A   Clear
9:52 AM 18.0 °F 9.8 °F -2.9 °F 40% 29.74 in 10.0 mi South 5.8 mph - N/A   Mostly Cloudy
10:52 AM 25.0 °F 17.1 °F 5.0 °F 43% 29.70 in 10.0 mi South 6.9 mph - N/A   Mostly Cloudy
11:52 AM 27.0 °F 19.5 °F 9.0 °F 47% 29.65 in 10.0 mi South 6.9 mph - N/A   Overcast
12:09 PM 27.0 °F 14.7 °F 12.9 °F 56% 29.63 in 2.5 mi SSW 16.1 mph 21.9 mph 0.00 in Snow Light Snow
12:37 PM 27.0 °F 16.7 °F 18.0 °F 69% 29.61 in 1.8 mi SW 11.5 mph 23.0 mph 0.00 in Snow Light Snow
12:41 PM 28.0 °F 16.5 °F 18.0 °F 66% 29.60 in 3.0 mi SSW 15.0 mph 20.7 mph 0.00 in Snow Light Snow
12:52 PM 28.9 °F 18.2 °F 15.1 °F 56% 29.60 in 9.0 mi SSW 13.8 mph - 0.00 in   Overcast
1:52 PM 28.9 °F 19.2 °F 10.0 °F 45% 29.60 in 10.0 mi WNW 11.5 mph 21.9 mph N/A   Overcast
2:52 PM 28.9 °F 19.2 °F 8.1 °F 41% 29.61 in 10.0 mi WSW 11.5 mph 19.6 mph N/A   Mostly Cloudy
3:52 PM 28.9 °F 18.2 °F 3.0 °F 33% 29.63 in 10.0 mi West 13.8 mph 29.9 mph N/A   Mostly Cloudy
4:52 PM 27.0 °F 16.1 °F 6.1 °F 41% 29.66 in 10.0 mi West 12.7 mph 20.7 mph 0.00 in   Scattered Clouds
5:52 PM 26.1 °F 16.8 °F 3.0 °F 37% 29.69 in 10.0 mi West 9.2 mph - N/A   Clear
6:52 PM 24.1 °F 18.2 °F 1.9 °F 38% 29.73 in 10.0 mi WSW 4.6 mph - N/A   Clear
7:52 PM 24.1 °F 15.2 °F 3.9 °F 42% 29.76 in 10.0 mi West 8.1 mph 18.4 mph N/A   Mostly Cloudy
8:21 PM 21.0 °F 7.6 °F 12.0 °F 68% 29.80 in 1.8 mi NW 15.0 mph 32.2 mph 0.00 in Snow Light Snow
8:26 PM 19.9 °F 4.3 °F 12.9 °F 74% 29.80 in 0.8 mi NW 19.6 mph 29.9 mph 0.00 in Snow Light Snow
8:35 PM 19.9 °F 3.5 °F 12.9 °F 74% 29.81 in 1.5 mi WNW 21.9 mph 29.9 mph 0.00 in Snow Light Snow
8:52 PM 19.9 °F 5.7 °F 10.9 °F 68% 29.84 in 2.0 mi WNW 16.1 mph 24.2 mph 0.00 in Snow Light Snow
9:05 PM 19.9 °F 6.2 °F 10.0 °F 65% 29.84 in 4.0 mi WNW 15.0 mph 21.9 mph 0.00 in Snow Light Snow
9:52 PM 17.1 °F 4.3 °F 1.9 °F 52% 29.91 in 10.0 mi NW 11.5 mph 21.9 mph 0.00 in   Overcast
10:52 PM 15.1 °F 1.1 °F -7.1 °F 37% 29.96 in 10.0 mi NW 12.7 mph 26.5 mph N/A   Clear
11:52 PM 12.9 °F 0.7 °F -9.9 °F 35% 29.99 in 10.0 mi WNW 9.2 mph 23.0 mph N/A   Clear